軌道要素
Epoch 2003 May 1.0 TT = JDT 2452760.5
T 2003 Apr. 24.24483 TT MPC
q 2.9014465 (2000.0) P Q
z +0.0001201 Peri. 6.48140 +0.07270372 +0.73000584
+/-0.0000051 Node 269.41761 -0.94285802 -0.17183765
e 0.9996514 Incl. 42.81223 -0.32516599 +0.66148568
>From 509 observations 2003 Apr. 30-Aug. 4, mean residual 0".56.
|